Regional Weather Roundup
Issued by NWS Kansas City/Pleasant Hill, MO

Home | Current Version | Previous Version | Graphics & Text | Print | Product List | Glossary Off
Versions: 1 2 3 4 5 6 7 8 9 10 11 12 13 14 15 16 17 18 19 20 21 22 23 24 25 26 27 28 29 30 31 32 33 34 35 36 37 38 39 40 41 42 43 44 45 46 47 48 49 50

000
ASUS43 KEAX 050111
RWREAX

WEATHER ROUNDUP FOR EASTERN KANSAS AND NORTHWEST MISSOURI
NATIONAL WEATHER SERVICE KANSAS CITY/PLEASANT HILL MO
800 PM CDT SAT JUL 04 2015

KSZ040-057-103>105-MOZ028-029-037-043-050200-
...KANSAS CITY METROPOLITAN AREA...

CITY           SKY/WX    TMP DP  RH WIND       PRES   REMARKS
K.C. INTL      MOCLDY    78  62  57 SE9       29.94S
K.C. DOWNTOWN  PTCLDY    80  63  55 SE10      29.92F
LEES SUMMIT    PTCLDY    78  61  55 SE6       29.95F
OLATHE - IXD   PTCLDY    78  64  61 SE7       29.95S
OLATHE - OJC   PTCLDY    77  64  64 SE7       29.94F
LAWRENCE       PTCLDY    76  66  71 SE6       29.93S

$$

MOZ001>008-011>017-020>025-030>033-038>040-044>046-053-054-050200-
...NORTHERN AND CENTRAL MISSOURI...

CITY           SKY/WX    TMP DP  RH WIND       PRES   REMARKS
ST. JOSEPH     PTCLDY    78  64  61 SE6       29.93F
MOSBY          PTCLDY    79  63  57 SE3       29.94F
HARRISONVILLE  PTCLDY    79  66  65 CALM      29.98S
WARRENSBURG    PTCLDY    77  64  65 CALM      29.95S
WHITEMAN AFB   PTCLDY    76  66  70 S3        29.95S
CLINTON        PTCLDY    79  70  73 CALM      29.96S
SEDALIA        PTCLDY    78  67  68 CALM      29.98S
WARSAW         FAIR      77  66  69 CALM      29.97S
CHILLICOTHE      N/A     79  64  60 S3        29.96S
KIRKSVILLE     CLEAR     75  64  68 S5        29.99R

$$

MOZ041-047>049-056>058-063>065-088>090-097-050200-
...EASTERN AND SOUTHERN MISSOURI...

CITY           SKY/WX    TMP DP  RH WIND       PRES   REMARKS
ST. LOUIS INTL PTCLDY    78  62  57 E7        29.99R
SPIRIT OF STL  PTCLDY    76  65  68 E3        29.97R
COLUMBIA       CLEAR     77  66  68 E3        29.98R
JEFFERSON CITY CLEAR     78  67  68 E3        29.96R
MEXICO         CLEAR     79  70  73 S3        29.98R
ROLLA          CLEAR     75  67  76 E5        29.98R
LEBANON        CLEAR     77  66  69 MISG      29.98F
OSAGE BEACH    CLEAR     75  68  78 CALM      29.97S
SPRINGFIELD    PTCLDY    80  68  66 N6        29.96R
BRANSON        MOCLDY    77  70  78 CALM      29.99R
JOPLIN         PTCLDY    81  67  62 E5        29.94S
WEST PLAINS    CLEAR     77  68  73 SE3       30.00R
MALDEN         CLOUDY    79  72  78 CALM      29.98R HAZE

$$

IAZ060-094-KSZ022-034>040-054-083-096-NEZ052-066-093-050200-
...KANSAS...SOUTHEAST NEBRASKA AND IOWA...

CITY           SKY/WX    TMP DP  RH WIND       PRES   REMARKS
TOPEKA         PTCLDY    81  64  56 E5        29.93R
MANHATTAN      CLEAR     82  67  60 E8        29.90S
EMPORIA        CLEAR     82  62  50 SE7       29.92R
CHANUTE        CLEAR     82  66  58 E7        29.92S
WICHITA        PTCLDY    87  64  46 SE10      29.89S
OMAHA          MOCLDY    79  64  60 SE10      29.90F
LINCOLN        CLEAR     79  63  57 S9        29.90F
FALLS CITY     PTCLDY    78  66  66 SE5       29.92S
LAMONI         PTCLDY    78  63  59 SE3       29.96S
DES MOINES     CLOUDY    79  60  52 SE7       29.94F

$$




USA.gov is the U.S. government's official web portal to all federal, state and local government web resources and services.